VST1086 KEWR-KFSD

Flight info

Callsign VST1086
Flight time 2h 54m
Altitude 38000
Route NEWEL J60 DJB BAE
Aircraft A319/M-SDE3FGHIRWY/LB1

Departure

Time 2026-05-07 15:38
Airport Newark Liberty International Airport (KEWR)

Arrival

Time 2026-05-07 18:32
Airport Sioux Falls Regional Airport (KFSD)
Time Latitude Longitude Altitude Speed Heading
2026-05-07 15:16 40.68941 -74.17595 22 ft 0 kts 66°
2026-05-07 15:27 40.68940 -74.17599 22 ft 4 kts 59°
2026-05-07 15:28 40.68933 -74.17621 25 ft 4 kts 62°
2026-05-07 15:28 40.68918 -74.17651 24 ft 4 kts 56°
2026-05-07 15:28 40.68910 -74.17674 23 ft 2 kts 115°
2026-05-07 15:28 40.68911 -74.17676 23 ft 0 kts 116°
2026-05-07 15:32 40.68905 -74.17661 26 ft 4 kts 116°
2026-05-07 15:32 40.68893 -74.17628 22 ft 2 kts 116°
2026-05-07 15:32 40.68884 -74.17604 22 ft 4 kts 116°
2026-05-07 15:33 40.68866 -74.17556 22 ft 9 kts 117°
2026-05-07 15:33 40.68836 -74.17473 22 ft 11 kts 114°
2026-05-07 15:33 40.68780 -74.17432 22 ft 11 kts 206°
2026-05-07 15:33 40.68707 -74.17481 22 ft 12 kts 206°
2026-05-07 15:34 40.68627 -74.17534 22 ft 14 kts 207°
2026-05-07 15:34 40.68538 -74.17590 22 ft 15 kts 206°
2026-05-07 15:34 40.68442 -74.17651 22 ft 16 kts 206°
2026-05-07 15:34 40.68338 -74.17718 24 ft 17 kts 206°
2026-05-07 15:35 40.68226 -74.17789 22 ft 18 kts 205°
2026-05-07 15:35 40.68107 -74.17864 22 ft 20 kts 206°
2026-05-07 15:35 40.67987 -74.17941 23 ft 19 kts 205°
2026-05-07 15:35 40.67864 -74.18018 22 ft 20 kts 206°
2026-05-07 15:36 40.67741 -74.18096 22 ft 19 kts 206°
2026-05-07 15:36 40.67643 -74.18116 22 ft 14 kts 139°
2026-05-07 15:36 40.67594 -74.18036 24 ft 11 kts 128°
2026-05-07 15:36 40.67561 -74.17944 23 ft 11 kts 81°
2026-05-07 15:37 40.67619 -74.17894 22 ft 10 kts 24°
2026-05-07 15:37 40.67744 -74.17813 21 ft 48 kts 26°
2026-05-07 15:37 40.68266 -74.17484 23 ft 115 kts 26°
2026-05-07 15:37 40.69145 -74.16923 149 ft 154 kts 23°
2026-05-07 15:38 40.70074 -74.16230 876 ft 157 kts 37°
2026-05-07 15:38 40.70863 -74.15238 1660 ft 157 kts 40°
2026-05-07 15:38 40.71853 -74.14531 2071 ft 174 kts
2026-05-07 15:38 40.73088 -74.14912 2423 ft 199 kts 327°
2026-05-07 15:39 40.74003 -74.16409 2852 ft 228 kts 294°
2026-05-07 15:39 40.74162 -74.18595 3479 ft 254 kts 264°
2026-05-07 15:39 40.73745 -74.20885 4433 ft 260 kts 258°
2026-05-07 15:39 40.73256 -74.23185 5480 ft 261 kts 257°
2026-05-07 15:40 40.72756 -74.25472 6594 ft 258 kts 257°
2026-05-07 15:40 40.72269 -74.27740 7489 ft 257 kts 257°
2026-05-07 15:40 40.71806 -74.29988 8090 ft 252 kts 257°
2026-05-07 15:40 40.71370 -74.32207 9208 ft 249 kts 257°
2026-05-07 15:41 40.70962 -74.34415 9783 ft 245 kts 257°
2026-05-07 15:41 40.70708 -74.36651 10367 ft 256 kts 270°
2026-05-07 15:41 40.71135 -74.39063 10652 ft 285 kts 284°
2026-05-07 15:41 40.71813 -74.41587 11203 ft 297 kts 285°
2026-05-07 15:42 40.72535 -74.44171 11965 ft 302 kts 285°
2026-05-07 15:42 40.73265 -74.46780 12689 ft 306 kts 284°
2026-05-07 15:42 40.73998 -74.49424 13519 ft 309 kts 283°
2026-05-07 15:42 40.74734 -74.52098 14244 ft 311 kts 283°
2026-05-07 15:43 40.75472 -74.54799 14957 ft 314 kts 283°
2026-05-07 15:43 40.76212 -74.57516 15660 ft 316 kts 283°
2026-05-07 15:43 40.76955 -74.60260 16359 ft 319 kts 283°
2026-05-07 15:43 40.77702 -74.63030 16851 ft 321 kts 283°
2026-05-07 15:44 40.78442 -74.65770 16994 ft 320 kts 283°
2026-05-07 15:44 40.79192 -74.68534 17014 ft 320 kts 283°
2026-05-07 15:44 40.79943 -74.71295 17037 ft 321 kts 283°
2026-05-07 15:44 40.80698 -74.74093 17690 ft 324 kts 283°
2026-05-07 15:45 40.81454 -74.76900 18397 ft 326 kts 283°
2026-05-07 15:45 40.82220 -74.79737 19022 ft 328 kts 282°
2026-05-07 15:45 40.82986 -74.82573 19726 ft 328 kts 282°
2026-05-07 15:45 40.83750 -74.85405 20448 ft 327 kts 281°
2026-05-07 15:46 40.85262 -74.91048 21864 ft 325 kts 279°
2026-05-07 15:46 40.86013 -74.93861 22516 ft 325 kts 279°
2026-05-07 15:46 40.86765 -74.96673 23181 ft 324 kts 278°
2026-05-07 15:47 40.87516 -74.99481 23785 ft 324 kts 278°
2026-05-07 15:47 40.88267 -75.02291 24260 ft 325 kts 278°
2026-05-07 15:47 40.89016 -75.05112 24739 ft 326 kts 278°
2026-05-07 15:47 40.89768 -75.07941 25230 ft 327 kts 278°
2026-05-07 15:48 40.90519 -75.10776 25696 ft 328 kts 278°
2026-05-07 15:48 40.91270 -75.13626 26161 ft 327 kts 276°
2026-05-07 15:48 40.91701 -75.16510 26607 ft 315 kts 265°
2026-05-07 15:48 40.91590 -75.19360 27068 ft 308 kts 256°
2026-05-07 15:49 40.91030 -75.22087 27505 ft 307 kts 251°
2026-05-07 15:49 40.90396 -75.24781 27930 ft 308 kts 251°
2026-05-07 15:49 40.89758 -75.27497 28366 ft 309 kts 251°
2026-05-07 15:49 40.89118 -75.30217 28816 ft 311 kts 251°
2026-05-07 15:50 40.88473 -75.32945 29251 ft 312 kts 251°
2026-05-07 15:50 40.87826 -75.35683 29664 ft 313 kts 251°
2026-05-07 15:50 40.87178 -75.38433 30062 ft 314 kts 251°
2026-05-07 15:50 40.86529 -75.41193 30398 ft 315 kts 251°
2026-05-07 15:51 40.85876 -75.43964 30775 ft 316 kts 251°
2026-05-07 15:51 40.85226 -75.46722 31249 ft 313 kts 251°
2026-05-07 15:51 40.84580 -75.49461 31616 ft 312 kts 251°
2026-05-07 15:51 40.83937 -75.52194 32021 ft 311 kts 251°
2026-05-07 15:52 40.83292 -75.54919 32459 ft 310 kts 251°
2026-05-07 15:52 40.82649 -75.57629 32913 ft 309 kts 251°
2026-05-07 15:52 40.82008 -75.60324 33378 ft 307 kts 252°
2026-05-07 15:52 40.81370 -75.63003 33842 ft 305 kts 252°
2026-05-07 15:53 40.80733 -75.65667 34251 ft 304 kts 252°
2026-05-07 15:53 40.80100 -75.68320 34619 ft 303 kts 252°
2026-05-07 15:53 40.79466 -75.70977 34954 ft 303 kts 252°
2026-05-07 15:53 40.78836 -75.73625 35271 ft 303 kts 252°
2026-05-07 15:54 40.78202 -75.76277 35583 ft 303 kts 252°
2026-05-07 15:54 40.77565 -75.78931 35921 ft 304 kts 252°
2026-05-07 15:54 40.76927 -75.81591 36175 ft 305 kts 252°
2026-05-07 15:54 40.76284 -75.84262 36427 ft 306 kts 252°
2026-05-07 15:55 40.75639 -75.86943 36681 ft 307 kts 252°
2026-05-07 15:55 40.74992 -75.89632 36929 ft 308 kts 252°
2026-05-07 15:55 40.74343 -75.92326 37187 ft 309 kts 252°
2026-05-07 15:55 40.73690 -75.95024 37451 ft 309 kts 252°
2026-05-07 15:56 40.73037 -75.97727 37717 ft 310 kts 252°
2026-05-07 15:56 40.72381 -76.00434 37907 ft 311 kts 252°
2026-05-07 15:56 40.71720 -76.03154 37956 ft 312 kts 252°
2026-05-07 15:57 40.70410 -76.08555 37951 ft 309 kts 252°
2026-05-07 15:57 40.69105 -76.13926 37961 ft 307 kts 252°
2026-05-07 15:58 40.67791 -76.19323 37964 ft 312 kts 252°
2026-05-07 15:58 40.66927 -76.24929 37963 ft 318 kts 266°
2026-05-07 15:59 40.67650 -76.30767 37961 ft 325 kts 273°
2026-05-07 15:59 40.68532 -76.36610 37961 ft 325 kts 272°
2026-05-07 16:00 40.69408 -76.42463 37960 ft 326 kts 272°
2026-05-07 16:00 40.70281 -76.48321 37959 ft 326 kts 272°
2026-05-07 16:01 40.71148 -76.54189 37992 ft 327 kts 273°
2026-05-07 16:01 40.72015 -76.60088 37968 ft 328 kts 273°
2026-05-07 16:02 40.72883 -76.66004 37963 ft 330 kts 273°
2026-05-07 16:02 40.73760 -76.71956 37966 ft 331 kts 273°
2026-05-07 16:03 40.74629 -76.77862 37960 ft 330 kts 273°
2026-05-07 16:03 40.75490 -76.83804 37968 ft 330 kts 273°
2026-05-07 16:04 40.76348 -76.89759 38002 ft 332 kts 273°
2026-05-07 16:04 40.77213 -76.95762 37984 ft 334 kts 273°
2026-05-07 16:05 40.78079 -77.01785 37977 ft 334 kts 273°
2026-05-07 16:05 40.78943 -77.07818 37975 ft 335 kts 273°
2026-05-07 16:06 40.79805 -77.13859 37976 ft 335 kts 273°
2026-05-07 16:06 40.80665 -77.19907 37974 ft 335 kts 273°
2026-05-07 16:07 40.81524 -77.25960 37992 ft 335 kts 274°
2026-05-07 16:07 40.82378 -77.32022 37977 ft 336 kts 273°
2026-05-07 16:08 40.83225 -77.38090 37973 ft 336 kts 273°
2026-05-07 16:08 40.84076 -77.44167 37966 ft 337 kts 273°
2026-05-07 16:09 40.84930 -77.50245 37969 ft 337 kts 273°
2026-05-07 16:09 40.85777 -77.56342 37972 ft 338 kts 273°
2026-05-07 16:10 40.86616 -77.62446 37987 ft 338 kts 274°
2026-05-07 16:10 40.87451 -77.68559 37977 ft 338 kts 274°
2026-05-07 16:11 40.88293 -77.74686 37969 ft 339 kts 274°
2026-05-07 16:11 40.89132 -77.80818 37967 ft 339 kts 273°
2026-05-07 16:12 40.89961 -77.86914 37957 ft 339 kts 273°
2026-05-07 16:12 40.90789 -77.93055 37955 ft 339 kts 273°
2026-05-07 16:13 40.91619 -77.99201 37971 ft 340 kts 274°
2026-05-07 16:13 40.92413 -78.05367 37965 ft 341 kts 273°
2026-05-07 16:14 40.93168 -78.11546 37970 ft 341 kts 273°
2026-05-07 16:14 40.93926 -78.17744 37963 ft 341 kts 273°
2026-05-07 16:15 40.94684 -78.23938 37959 ft 341 kts 273°
2026-05-07 16:15 40.95438 -78.30139 37959 ft 342 kts 273°
2026-05-07 16:16 40.96191 -78.36347 37958 ft 342 kts 273°
2026-05-07 16:16 40.96945 -78.42551 37960 ft 341 kts 273°
2026-05-07 16:17 40.97697 -78.48754 37957 ft 342 kts 273°
2026-05-07 16:17 40.98444 -78.54958 37959 ft 341 kts 273°
2026-05-07 16:18 40.99059 -78.60114 37971 ft 341 kts 272°
2026-05-07 16:18 40.99801 -78.66375 37968 ft 342 kts 272°
2026-05-07 16:19 41.00531 -78.72556 37986 ft 342 kts 273°
2026-05-07 16:19 41.01266 -78.78790 37954 ft 343 kts 273°
2026-05-07 16:20 41.02001 -78.85036 37943 ft 344 kts 273°
2026-05-07 16:20 41.02737 -78.91297 37998 ft 345 kts 273°
2026-05-07 16:21 41.03466 -78.97604 37965 ft 348 kts 273°
2026-05-07 16:21 41.04196 -79.03947 37958 ft 349 kts 273°
2026-05-07 16:22 41.04921 -79.10306 37960 ft 350 kts 273°
2026-05-07 16:22 41.05650 -79.16686 37953 ft 351 kts 273°
2026-05-07 16:23 41.06380 -79.23087 37956 ft 352 kts 273°
2026-05-07 16:23 41.07112 -79.29498 37964 ft 352 kts 273°
2026-05-07 16:24 41.07841 -79.35875 37973 ft 353 kts 273°
2026-05-07 16:24 41.08562 -79.42302 37978 ft 353 kts 273°
2026-05-07 16:25 41.09275 -79.48750 37989 ft 354 kts 273°
2026-05-07 16:25 41.09989 -79.55217 37975 ft 355 kts 273°
2026-05-07 16:26 41.10706 -79.61705 37976 ft 356 kts 273°
2026-05-07 16:26 41.11425 -79.68211 37977 ft 357 kts 273°
2026-05-07 16:27 41.12137 -79.74729 37979 ft 357 kts 273°
2026-05-07 16:27 41.12841 -79.81249 38007 ft 358 kts 273°
2026-05-07 16:28 41.13548 -79.87787 37994 ft 359 kts 273°
2026-05-07 16:28 41.14251 -79.94346 37989 ft 359 kts 273°
2026-05-07 16:29 41.14952 -80.00914 37985 ft 360 kts 273°
2026-05-07 16:29 41.15649 -80.07444 37992 ft 360 kts 273°
2026-05-07 16:30 41.16341 -80.14024 37982 ft 360 kts 273°
2026-05-07 16:30 41.17033 -80.20618 38011 ft 361 kts 273°
2026-05-07 16:31 41.17728 -80.27214 37993 ft 361 kts 273°
2026-05-07 16:31 41.18417 -80.33826 37990 ft 362 kts 273°
2026-05-07 16:32 41.19098 -80.40450 37980 ft 362 kts 273°
2026-05-07 16:32 41.19781 -80.47078 37986 ft 362 kts 273°
2026-05-07 16:33 41.20459 -80.53698 37988 ft 362 kts 273°
2026-05-07 16:33 41.21130 -80.60338 38004 ft 363 kts 273°
2026-05-07 16:34 41.21801 -80.66984 37986 ft 363 kts 273°
2026-05-07 16:34 41.22462 -80.73592 37981 ft 364 kts 273°
2026-05-07 16:35 41.23128 -80.80249 37978 ft 364 kts 273°
2026-05-07 16:35 41.23787 -80.86912 37979 ft 364 kts 273°
2026-05-07 16:36 41.24447 -80.93579 37991 ft 364 kts 273°
2026-05-07 16:36 41.25100 -81.00252 37984 ft 364 kts 273°
2026-05-07 16:37 41.25749 -81.06938 37982 ft 365 kts 273°
2026-05-07 16:37 41.26395 -81.13625 37979 ft 365 kts 273°
2026-05-07 16:38 41.27040 -81.20314 37979 ft 365 kts 273°
2026-05-07 16:38 41.27683 -81.27007 37978 ft 365 kts 273°
2026-05-07 16:39 41.28315 -81.33709 37986 ft 365 kts 273°
2026-05-07 16:39 41.28941 -81.40418 37981 ft 366 kts 273°
2026-05-07 16:40 41.29570 -81.47133 37980 ft 366 kts 273°
2026-05-07 16:40 41.30193 -81.53854 37985 ft 366 kts 273°
2026-05-07 16:41 41.30818 -81.60532 37988 ft 366 kts 273°
2026-05-07 16:41 41.31437 -81.67258 38006 ft 366 kts 273°
2026-05-07 16:42 41.32049 -81.73989 37995 ft 367 kts 273°
2026-05-07 16:42 41.32659 -81.80733 37989 ft 367 kts 273°
2026-05-07 16:43 41.33266 -81.87474 37991 ft 367 kts 273°
2026-05-07 16:43 41.33870 -81.94219 37992 ft 367 kts 273°
2026-05-07 16:44 41.34470 -82.00964 38006 ft 367 kts 273°
2026-05-07 16:44 41.35070 -82.07712 38005 ft 367 kts 273°
2026-05-07 16:45 41.35670 -82.14461 38012 ft 368 kts 275°
2026-05-07 16:45 41.37326 -82.20949 38008 ft 377 kts 287°
2026-05-07 16:46 41.39402 -82.27363 38002 ft 377 kts 286°
2026-05-07 16:46 41.41465 -82.33783 38011 ft 377 kts 286°
2026-05-07 16:47 41.43520 -82.40207 38031 ft 377 kts 286°
2026-05-07 16:47 41.45580 -82.46663 38017 ft 379 kts 287°
2026-05-07 16:48 41.47641 -82.53137 38007 ft 380 kts 287°
2026-05-07 16:48 41.49701 -82.59630 38001 ft 380 kts 287°
2026-05-07 16:49 41.51765 -82.66134 38003 ft 381 kts 287°
2026-05-07 16:49 41.53825 -82.72648 38002 ft 381 kts 287°
2026-05-07 16:50 41.55882 -82.79173 38019 ft 381 kts 287°
2026-05-07 16:50 41.57939 -82.85698 38006 ft 381 kts 287°
2026-05-07 16:51 41.59990 -82.92227 38002 ft 381 kts 287°
2026-05-07 16:51 41.62020 -82.98725 38004 ft 382 kts 287°
2026-05-07 16:52 41.64062 -83.05277 38006 ft 382 kts 287°
2026-05-07 16:52 41.66104 -83.11828 38008 ft 382 kts 287°
2026-05-07 16:53 41.68150 -83.18392 38027 ft 382 kts 287°
2026-05-07 16:53 41.70189 -83.24954 38023 ft 382 kts 287°
2026-05-07 16:54 41.72220 -83.31517 38018 ft 382 kts 287°
2026-05-07 16:54 41.74243 -83.38083 38015 ft 381 kts 287°
2026-05-07 16:55 41.76261 -83.44652 38019 ft 381 kts 287°
2026-05-07 16:55 41.78276 -83.51227 38018 ft 381 kts 287°
2026-05-07 16:56 41.80293 -83.57806 38026 ft 382 kts 287°
2026-05-07 16:56 41.83315 -83.67695 38001 ft 382 kts 287°
2026-05-07 16:57 41.85322 -83.74309 37991 ft 383 kts 286°
2026-05-07 16:57 41.87332 -83.80938 37996 ft 384 kts 287°
2026-05-07 16:58 41.89345 -83.87577 38022 ft 384 kts 287°
2026-05-07 16:58 41.91354 -83.94224 38019 ft 384 kts 287°
2026-05-07 16:59 41.93355 -84.00886 38025 ft 385 kts 286°
2026-05-07 16:59 41.95360 -84.07563 38023 ft 385 kts 287°
2026-05-07 17:00 41.97363 -84.14239 38022 ft 385 kts 286°
2026-05-07 17:00 41.99361 -84.20924 38028 ft 385 kts 286°
2026-05-07 17:01 42.01361 -84.27610 38031 ft 386 kts 286°
2026-05-07 17:01 42.03356 -84.34307 38029 ft 386 kts 286°
2026-05-07 17:02 42.05344 -84.41014 38045 ft 386 kts 286°
2026-05-07 17:02 42.07329 -84.47737 38053 ft 387 kts 287°
2026-05-07 17:03 42.09321 -84.54488 38039 ft 388 kts 287°
2026-05-07 17:03 42.11313 -84.61258 38033 ft 389 kts 287°
2026-05-07 17:04 42.13288 -84.67981 38035 ft 389 kts 287°
2026-05-07 17:04 42.15275 -84.74775 38030 ft 390 kts 287°
2026-05-07 17:05 42.17262 -84.81576 38031 ft 390 kts 287°
2026-05-07 17:05 42.19251 -84.88381 38029 ft 390 kts 287°
2026-05-07 17:06 42.21225 -84.95198 38030 ft 390 kts 287°
2026-05-07 17:06 42.23199 -85.02020 38030 ft 390 kts 287°
2026-05-07 17:07 42.25164 -85.08854 38036 ft 391 kts 287°
2026-05-07 17:07 42.27121 -85.15642 38044 ft 391 kts 287°
2026-05-07 17:08 42.29091 -85.22480 38044 ft 391 kts 287°
2026-05-07 17:08 42.31055 -85.29324 38090 ft 391 kts 287°
2026-05-07 17:09 42.33019 -85.36192 38050 ft 392 kts 287°
2026-05-07 17:09 42.34975 -85.43082 38036 ft 393 kts 287°
2026-05-07 17:10 42.36935 -85.49981 38040 ft 393 kts 287°
2026-05-07 17:10 42.38902 -85.56888 38044 ft 394 kts 287°
2026-05-07 17:11 42.40862 -85.63806 38044 ft 394 kts 287°
2026-05-07 17:11 42.42483 -85.69560 38045 ft 394 kts 287°
2026-05-07 17:12 42.44431 -85.76496 38050 ft 394 kts 287°
2026-05-07 17:12 42.46380 -85.83430 38050 ft 394 kts 287°
2026-05-07 17:13 42.48324 -85.90374 38061 ft 394 kts 287°
2026-05-07 17:13 42.50264 -85.97315 38056 ft 394 kts 287°
2026-05-07 17:14 42.52191 -86.04263 38058 ft 394 kts 287°
2026-05-07 17:14 42.54102 -86.11167 38057 ft 394 kts 287°
2026-05-07 17:15 42.56031 -86.18128 38070 ft 395 kts 287°
2026-05-07 17:15 42.57958 -86.25118 38058 ft 396 kts 287°
2026-05-07 17:16 42.59881 -86.32122 38053 ft 397 kts 287°
2026-05-07 17:16 42.61813 -86.39147 38058 ft 397 kts 287°
2026-05-07 17:17 42.63743 -86.46177 38060 ft 397 kts 287°
2026-05-07 17:17 42.65568 -86.52865 38057 ft 398 kts 287°
2026-05-07 17:18 42.67483 -86.59916 38057 ft 398 kts 287°
2026-05-07 17:18 42.69378 -86.66912 38057 ft 398 kts 287°
2026-05-07 17:19 42.71286 -86.73972 38056 ft 398 kts 287°
2026-05-07 17:19 42.73193 -86.81037 38056 ft 398 kts 287°
2026-05-07 17:20 42.75094 -86.88108 38052 ft 398 kts 287°
2026-05-07 17:20 42.76974 -86.95142 38044 ft 398 kts 287°
2026-05-07 17:21 42.78864 -87.02229 38043 ft 399 kts 287°
2026-05-07 17:21 42.80761 -87.09325 38042 ft 399 kts 287°
2026-05-07 17:22 42.82652 -87.16436 38035 ft 399 kts 287°
2026-05-07 17:22 42.84535 -87.23557 38037 ft 399 kts 287°
2026-05-07 17:23 42.86412 -87.30679 38039 ft 400 kts 287°
2026-05-07 17:23 42.88293 -87.37808 38035 ft 400 kts 287°
2026-05-07 17:24 42.90175 -87.44946 38032 ft 400 kts 287°
2026-05-07 17:24 42.92054 -87.52098 38024 ft 400 kts 287°
2026-05-07 17:25 42.93922 -87.59252 38017 ft 400 kts 287°
2026-05-07 17:25 42.95783 -87.66416 38011 ft 400 kts 287°
2026-05-07 17:26 42.97641 -87.73585 37991 ft 400 kts 287°
2026-05-07 17:26 42.99497 -87.80759 37995 ft 401 kts 287°
2026-05-07 17:27 43.01336 -87.87893 38018 ft 402 kts 287°
2026-05-07 17:27 43.03195 -87.95105 37996 ft 403 kts 287°
2026-05-07 17:28 43.05045 -88.02338 38001 ft 404 kts 287°
2026-05-07 17:28 43.06896 -88.09592 37987 ft 404 kts 287°
2026-05-07 17:29 43.08752 -88.16853 37992 ft 404 kts 287°
2026-05-07 17:29 43.10601 -88.24124 37998 ft 404 kts 287°
2026-05-07 17:30 43.11981 -88.31535 38004 ft 402 kts 276°
2026-05-07 17:30 43.12658 -88.39128 38006 ft 402 kts 276°
2026-05-07 17:31 43.13340 -88.46722 38001 ft 402 kts 276°
2026-05-07 17:31 43.14025 -88.54314 37992 ft 402 kts 277°
2026-05-07 17:32 43.14706 -88.61902 37998 ft 401 kts 277°
2026-05-07 17:32 43.15374 -88.69488 37997 ft 401 kts 277°
2026-05-07 17:33 43.16032 -88.77074 37998 ft 401 kts 277°
2026-05-07 17:33 43.16689 -88.84607 37996 ft 401 kts 277°
2026-05-07 17:34 43.17513 -88.92161 37994 ft 401 kts 279°
2026-05-07 17:34 43.18432 -88.99698 37993 ft 401 kts 279°
2026-05-07 17:35 43.19333 -89.07243 37979 ft 401 kts 279°
2026-05-07 17:35 43.20204 -89.14804 37974 ft 401 kts 278°
2026-05-07 17:36 43.21058 -89.22361 37970 ft 401 kts 278°
2026-05-07 17:36 43.21908 -89.29919 37956 ft 401 kts 279°
2026-05-07 17:37 43.22748 -89.37476 38005 ft 401 kts 279°
2026-05-07 17:37 43.23591 -89.45039 37980 ft 402 kts 279°
2026-05-07 17:38 43.24434 -89.52618 37970 ft 402 kts 279°
2026-05-07 17:38 43.25273 -89.60219 37965 ft 403 kts 279°
2026-05-07 17:39 43.26109 -89.67823 37960 ft 403 kts 279°
2026-05-07 17:39 43.26932 -89.75384 37957 ft 404 kts 279°
2026-05-07 17:40 43.27756 -89.83000 37960 ft 404 kts 278°
2026-05-07 17:40 43.28567 -89.90622 37964 ft 404 kts 278°
2026-05-07 17:41 43.29376 -89.98246 37966 ft 404 kts 278°
2026-05-07 17:41 43.30183 -90.05869 37959 ft 404 kts 279°
2026-05-07 17:42 43.30988 -90.13493 37966 ft 404 kts 279°
2026-05-07 17:42 43.31783 -90.21129 37966 ft 403 kts 278°
2026-05-07 17:43 43.32572 -90.28755 37966 ft 403 kts 278°
2026-05-07 17:43 43.33354 -90.36328 37963 ft 403 kts 278°
2026-05-07 17:44 43.34140 -90.43948 37951 ft 403 kts 279°
2026-05-07 17:44 43.34914 -90.51563 37962 ft 403 kts 279°
2026-05-07 17:45 43.35689 -90.59176 37966 ft 402 kts 279°
2026-05-07 17:45 43.36456 -90.66783 37969 ft 402 kts 278°
2026-05-07 17:46 43.37212 -90.74391 37968 ft 402 kts 278°
2026-05-07 17:46 43.37963 -90.81997 37962 ft 402 kts 279°
2026-05-07 17:47 43.38708 -90.89605 37961 ft 401 kts 279°
2026-05-07 17:47 43.39452 -90.97210 37960 ft 401 kts 279°
2026-05-07 17:48 43.40192 -91.04811 37964 ft 401 kts 279°
2026-05-07 17:48 43.40928 -91.12413 37964 ft 401 kts 278°
2026-05-07 17:49 43.41653 -91.20025 37956 ft 401 kts 279°
2026-05-07 17:49 43.42370 -91.27627 37988 ft 401 kts 279°
2026-05-07 17:50 43.43088 -91.35232 37978 ft 401 kts 279°
2026-05-07 17:50 43.43801 -91.42850 37963 ft 402 kts 279°
2026-05-07 17:51 43.44509 -91.50477 37957 ft 402 kts 279°
2026-05-07 17:51 43.45204 -91.58057 37939 ft 402 kts 279°
2026-05-07 17:52 43.45903 -91.65688 37942 ft 402 kts 279°
2026-05-07 17:52 43.46601 -91.73319 37951 ft 402 kts 279°
2026-05-07 17:53 43.47292 -91.80950 37954 ft 402 kts 279°
2026-05-07 17:53 43.47976 -91.88587 37968 ft 402 kts 278°
2026-05-07 17:54 43.48644 -91.96222 37952 ft 402 kts 279°
2026-05-07 17:54 43.49314 -92.03851 37967 ft 401 kts 279°
2026-05-07 17:55 43.49987 -92.11479 37963 ft 401 kts 279°
2026-05-07 17:55 43.50649 -92.19109 37962 ft 401 kts 279°
2026-05-07 17:56 43.51305 -92.26739 37962 ft 401 kts 278°
2026-05-07 17:56 43.51952 -92.34371 37950 ft 401 kts 279°
2026-05-07 17:57 43.52492 -92.40716 37954 ft 401 kts 279°
2026-05-07 17:57 43.53242 -92.49627 37959 ft 401 kts 279°
2026-05-07 17:58 43.53873 -92.57202 37961 ft 401 kts 279°
2026-05-07 17:58 43.54502 -92.64831 37960 ft 401 kts 278°
2026-05-07 17:59 43.55126 -92.72458 37945 ft 400 kts 279°
2026-05-07 17:59 43.55742 -92.80080 37958 ft 400 kts 279°
2026-05-07 18:00 43.56360 -92.87700 37964 ft 400 kts 279°
2026-05-07 18:00 43.56973 -92.95309 37966 ft 399 kts 278°
2026-05-07 18:01 43.57573 -93.02918 37967 ft 399 kts 278°
2026-05-07 18:01 43.58171 -93.10530 37952 ft 399 kts 279°
2026-05-07 18:02 43.59059 -93.21938 37990 ft 399 kts 279°
2026-05-07 18:03 43.59639 -93.29545 37969 ft 399 kts 279°
2026-05-07 18:03 43.60220 -93.37159 37970 ft 399 kts 279°
2026-05-07 18:04 43.60791 -93.44722 37962 ft 399 kts 279°
2026-05-07 18:04 43.61362 -93.52345 37962 ft 399 kts 279°
2026-05-07 18:05 43.61927 -93.59968 37963 ft 399 kts 278°
2026-05-07 18:05 43.62484 -93.67596 37965 ft 400 kts 278°
2026-05-07 18:06 43.62938 -93.73938 37967 ft 400 kts 278°
2026-05-07 18:06 43.63487 -93.81568 37943 ft 399 kts 278°
2026-05-07 18:07 43.64045 -93.89193 37954 ft 399 kts 279°
2026-05-07 18:07 43.64595 -93.96819 37970 ft 399 kts 278°
2026-05-07 18:08 43.65127 -94.04437 37973 ft 399 kts 278°
2026-05-07 18:08 43.65648 -94.12054 37975 ft 398 kts 278°
2026-05-07 18:09 43.66167 -94.19670 37954 ft 398 kts 278°
2026-05-07 18:09 43.66690 -94.27280 37966 ft 398 kts 278°
2026-05-07 18:10 43.67204 -94.34887 37780 ft 398 kts 278°
2026-05-07 18:10 43.67456 -94.38683 37514 ft 396 kts 279°
2026-05-07 18:10 43.67708 -94.42470 37253 ft 395 kts 279°
2026-05-07 18:10 43.67961 -94.46247 36995 ft 395 kts 279°
2026-05-07 18:11 43.68212 -94.50019 36742 ft 394 kts 279°
2026-05-07 18:11 43.68457 -94.53743 36163 ft 395 kts 279°
2026-05-07 18:11 43.68709 -94.57566 35394 ft 396 kts 279°
2026-05-07 18:11 43.68953 -94.61312 34631 ft 398 kts 280°
2026-05-07 18:12 43.69201 -94.65131 33864 ft 399 kts 281°
2026-05-07 18:12 43.69445 -94.68949 32947 ft 398 kts 281°
2026-05-07 18:12 43.69687 -94.72765 32023 ft 399 kts 281°
2026-05-07 18:12 43.69930 -94.76597 31060 ft 401 kts 281°
2026-05-07 18:13 43.70172 -94.80436 30244 ft 400 kts 281°
2026-05-07 18:13 43.70406 -94.84213 29686 ft 390 kts 281°
2026-05-07 18:13 43.70633 -94.87908 29101 ft 381 kts 281°
2026-05-07 18:13 43.70854 -94.91518 28535 ft 373 kts 281°
2026-05-07 18:14 43.71068 -94.95054 28000 ft 366 kts 281°
2026-05-07 18:14 43.71281 -94.98522 27463 ft 359 kts 281°
2026-05-07 18:14 43.71492 -95.01926 26954 ft 353 kts 281°
2026-05-07 18:14 43.71701 -95.05278 26444 ft 348 kts 281°
2026-05-07 18:15 43.71905 -95.08586 25960 ft 343 kts 281°
2026-05-07 18:15 43.72105 -95.11863 25447 ft 341 kts 281°
2026-05-07 18:15 43.72303 -95.15115 24958 ft 338 kts 281°
2026-05-07 18:15 43.72498 -95.18348 24469 ft 337 kts 281°
2026-05-07 18:16 43.72688 -95.21566 24002 ft 335 kts 281°
2026-05-07 18:16 43.72878 -95.24770 23532 ft 334 kts 281°
2026-05-07 18:16 43.73067 -95.27955 23037 ft 331 kts 280°
2026-05-07 18:16 43.73251 -95.31107 22596 ft 329 kts 280°
2026-05-07 18:17 43.73452 -95.34357 22127 ft 345 kts 281°
2026-05-07 18:17 43.73456 -95.37673 21701 ft 357 kts 268°
2026-05-07 18:17 43.72757 -95.41015 21433 ft 366 kts 258°
2026-05-07 18:17 43.71908 -95.44344 21170 ft 366 kts 258°
2026-05-07 18:18 43.71045 -95.47654 20908 ft 366 kts 257°
2026-05-07 18:18 43.70183 -95.50953 20654 ft 365 kts 257°
2026-05-07 18:18 43.69323 -95.54242 20386 ft 363 kts 257°
2026-05-07 18:18 43.68469 -95.57515 20128 ft 361 kts 257°
2026-05-07 18:19 43.67625 -95.60745 19786 ft 354 kts 257°
2026-05-07 18:19 43.66793 -95.63924 19353 ft 350 kts 257°
2026-05-07 18:19 43.65973 -95.67064 18900 ft 346 kts 257°
2026-05-07 18:19 43.65159 -95.70186 18448 ft 344 kts 256°
2026-05-07 18:20 43.64352 -95.73278 17937 ft 341 kts 257°
2026-05-07 18:20 43.63552 -95.76330 17526 ft 336 kts 256°
2026-05-07 18:20 43.62760 -95.79342 17064 ft 332 kts 256°
2026-05-07 18:20 43.61976 -95.82327 16599 ft 329 kts 256°
2026-05-07 18:21 43.61198 -95.85287 16146 ft 327 kts 255°
2026-05-07 18:21 43.60425 -95.88225 15701 ft 325 kts 255°
2026-05-07 18:21 43.59651 -95.91149 15235 ft 324 kts 255°
2026-05-07 18:21 43.58878 -95.94066 14787 ft 323 kts 254°
2026-05-07 18:22 43.58110 -95.96970 14336 ft 322 kts 254°
2026-05-07 18:22 43.57603 -95.98887 14031 ft 322 kts 253°
2026-05-07 18:22 43.56578 -96.02761 13381 ft 321 kts 253°
2026-05-07 18:22 43.55814 -96.05639 12912 ft 319 kts 253°
2026-05-07 18:23 43.55055 -96.08496 12450 ft 316 kts 253°
2026-05-07 18:23 43.54300 -96.11336 11971 ft 315 kts 253°
2026-05-07 18:23 43.53558 -96.14121 11510 ft 313 kts 253°
2026-05-07 18:23 43.52799 -96.16969 11028 ft 312 kts 253°
2026-05-07 18:24 43.52053 -96.19769 10581 ft 310 kts 253°
2026-05-07 18:24 43.51330 -96.22463 10452 ft 298 kts 253°
2026-05-07 18:24 43.50613 -96.25121 10310 ft 287 kts 253°
2026-05-07 18:24 43.49932 -96.27642 10060 ft 282 kts 253°
2026-05-07 18:25 43.49247 -96.30187 9879 ft 279 kts 253°
2026-05-07 18:25 43.48584 -96.32655 9751 ft 278 kts 253°
2026-05-07 18:25 43.47911 -96.35157 9444 ft 281 kts 253°
2026-05-07 18:25 43.47229 -96.37687 9037 ft 280 kts 252°
2026-05-07 18:26 43.46546 -96.40218 8624 ft 278 kts 252°
2026-05-07 18:26 43.45874 -96.42706 8203 ft 277 kts 252°
2026-05-07 18:26 43.45212 -96.45154 7790 ft 276 kts 252°
2026-05-07 18:26 43.44546 -96.47611 7217 ft 273 kts 251°
2026-05-07 18:27 43.43882 -96.50056 6558 ft 272 kts 251°
2026-05-07 18:27 43.43221 -96.52490 5949 ft 271 kts 251°
2026-05-07 18:27 43.42568 -96.54903 5310 ft 268 kts 250°
2026-05-07 18:27 43.41920 -96.57299 4646 ft 266 kts 250°
2026-05-07 18:28 43.41469 -96.59752 4075 ft 262 kts 271°
2026-05-07 18:28 43.41825 -96.62088 3904 ft 241 kts 297°
2026-05-07 18:28 43.42803 -96.63828 3774 ft 223 kts 321°
2026-05-07 18:28 43.44113 -96.64842 3653 ft 210 kts 335°
2026-05-07 18:29 43.45413 -96.65669 3570 ft 202 kts 334°
2026-05-07 18:29 43.46661 -96.66466 3479 ft 194 kts 334°
2026-05-07 18:29 43.47859 -96.67233 3377 ft 187 kts 334°
2026-05-07 18:29 43.49030 -96.67982 3301 ft 184 kts 334°
2026-05-07 18:30 43.50159 -96.68706 3160 ft 175 kts 334°
2026-05-07 18:30 43.51239 -96.69398 2876 ft 167 kts 334°
2026-05-07 18:30 43.52250 -96.70045 2645 ft 152 kts 334°
2026-05-07 18:30 43.53168 -96.70634 2413 ft 140 kts 334°
2026-05-07 18:31 43.54017 -96.71179 2214 ft 131 kts 335°
2026-05-07 18:31 43.54825 -96.71700 2029 ft 126 kts 336°
2026-05-07 18:31 43.55612 -96.72209 1848 ft 125 kts 336°
2026-05-07 18:31 43.56395 -96.72724 1676 ft 125 kts 336°
2026-05-07 18:32 43.57176 -96.73234 1504 ft 124 kts 337°
2026-05-07 18:32 43.57916 -96.73708 1434 ft 102 kts 337°
2026-05-07 18:32 43.58395 -96.74017 1434 ft 51 kts 335°
2026-05-07 18:32 43.58579 -96.74110 1435 ft 18 kts 14°
2026-05-07 18:33 43.58612 -96.73990 1436 ft 16 kts 137°
2026-05-07 18:33 43.58502 -96.73917 1435 ft 19 kts 154°
2026-05-07 18:33 43.58381 -96.73843 1435 ft 20 kts 157°
2026-05-07 18:33 43.58253 -96.73758 1435 ft 21 kts 155°
2026-05-07 18:34 43.58147 -96.73691 1435 ft 17 kts 155°
2026-05-07 18:34 43.58048 -96.73629 1434 ft 11 kts 155°
2026-05-07 18:34 43.58006 -96.73551 1434 ft 12 kts 86°
2026-05-07 18:34 43.58011 -96.73507 1434 ft 0 kts 75°
2026-05-07 18:35 43.58012 -96.73504 1434 ft 1 kts 74°
2026-05-07 18:35 43.58020 -96.73484 1434 ft 3 kts 59°
2026-05-07 18:35 43.58028 -96.73444 1434 ft 5 kts 88°
2026-05-07 18:35 43.58030 -96.73407 1434 ft 3 kts 84°
2026-05-07 18:36 43.58030 -96.73400 1434 ft 0 kts 84°